TimeCST,TemperatureF,Dew PointF,Humidity,Sea Level PressureIn,VisibilityMPH,Wind Direction,Wind SpeedMPH,Gust SpeedMPH,PrecipitationIn,Events,Conditions,WindDirDegrees,DateUTC
12:53 AM,21.9,19.0,89,30.16,10.0,Variable,4.6,-,N/A,,Overcast,0,2011-11-20 06:53:00
1:29 AM,21.2,19.4,93,30.10,10.0,Calm,Calm,-,N/A,,Overcast,0,2011-11-20 07:29:00
1:38 AM,21.2,19.4,93,30.10,10.0,Variable,4.6,-,N/A,,Overcast,0,2011-11-20 07:38:00
1:45 AM,21.2,19.4,93,30.11,10.0,Variable,5.8,-,N/A,,Overcast,0,2011-11-20 07:45:00
1:53 AM,21.9,19.0,89,30.19,10.0,Variable,3.5,-,N/A,,Overcast,0,2011-11-20 07:53:00
2:53 AM,21.9,19.0,89,30.22,10.0,Calm,Calm,-,N/A,,Overcast,0,2011-11-20 08:53:00
3:03 AM,21.2,19.4,93,30.17,10.0,WNW,3.5,-,N/A,,Overcast,300,2011-11-20 09:03:00
3:34 AM,21.2,17.6,86,30.16,10.0,Calm,Calm,-,N/A,,Overcast,0,2011-11-20 09:34:00
3:53 AM,21.0,18.0,88,30.22,10.0,Variable,3.5,-,N/A,,Overcast,0,2011-11-20 09:53:00
4:53 AM,19.9,17.1,89,30.26,10.0,WNW,3.5,-,N/A,,Overcast,290,2011-11-20 10:53:00
6:09 AM,19.4,17.6,93,30.22,10.0,Calm,Calm,-,N/A,,Overcast,0,2011-11-20 12:09:00
6:37 AM,19.4,17.6,93,30.24,10.0,Calm,Calm,-,N/A,,Overcast,0,2011-11-20 12:37:00
6:53 AM,19.0,16.0,88,30.32,10.0,Variable,3.5,-,N/A,,Overcast,0,2011-11-20 12:53:00
7:21 AM,19.4,15.8,86,30.26,10.0,Calm,Calm,-,N/A,,Overcast,0,2011-11-20 13:21:00
8:53 AM,21.0,16.0,81,30.34,10.0,Calm,Calm,-,N/A,,Overcast,0,2011-11-20 14:53:00
9:08 AM,21.2,15.8,80,30.28,10.0,ENE,4.6,-,N/A,,Overcast,60,2011-11-20 15:08:00
9:53 AM,21.9,18.0,85,30.37,10.0,Calm,Calm,-,N/A,,Overcast,0,2011-11-20 15:53:00
10:53 AM,21.9,17.1,82,30.39,10.0,Calm,Calm,-,N/A,,Overcast,0,2011-11-20 16:53:00
11:53 AM,23.0,18.0,81,30.39,10.0,Calm,Calm,-,N/A,,Overcast,0,2011-11-20 17:53:00
12:53 PM,24.1,19.0,81,30.38,10.0,WSW,3.5,-,N/A,,Overcast,250,2011-11-20 18:53:00
1:32 PM,24.8,19.4,80,30.30,10.0,Calm,Calm,-,N/A,,Overcast,0,2011-11-20 19:32:00
1:53 PM,24.1,19.0,81,30.38,10.0,Variable,3.5,-,N/A,,Overcast,0,2011-11-20 19:53:00
2:53 PM,24.1,18.0,77,30.38,10.0,Calm,Calm,-,N/A,,Overcast,0,2011-11-20 20:53:00
3:53 PM,23.0,17.1,78,30.38,10.0,Calm,Calm,-,N/A,,Overcast,0,2011-11-20 21:53:00
4:53 PM,21.9,16.0,78,30.38,10.0,Calm,Calm,-,N/A,,Overcast,0,2011-11-20 22:53:00
5:53 PM,21.0,17.1,85,30.38,10.0,Calm,Calm,-,N/A,,Overcast,0,2011-11-20 23:53:00
6:53 PM,17.1,14.0,88,30.38,10.0,Calm,Calm,-,N/A,,Mostly Cloudy,0,2011-11-21 00:53:00
7:10 PM,15.8,12.2,86,30.31,10.0,Calm,Calm,-,N/A,,Scattered Clouds,0,2011-11-21 01:10:00
7:37 PM,14.0,10.4,86,30.30,10.0,Calm,Calm,-,N/A,,Mostly Cloudy,0,2011-11-21 01:37:00
8:53 PM,12.0,9.0,88,30.37,10.0,Calm,Calm,-,N/A,,Overcast,0,2011-11-21 02:53:00
10:07 PM,14.0,10.4,86,30.29,10.0,Calm,Calm,-,N/A,,Overcast,0,2011-11-21 04:07:00
10:53 PM,15.1,12.0,88,30.35,10.0,Calm,Calm,-,N/A,,Overcast,0,2011-11-21 04:53:00
11:53 PM,21.0,17.1,85,30.36,10.0,SSW,4.6,-,N/A,,Overcast,200,2011-11-21 05:53:00